Погода в Банном

Россия / Оренбургская область     51°20′50″N   58°43′59″E
темп.,
°C
ветер,
м/с
пор.,
м/с
влажн.,
%
обл.,
%
осадки,
мм/ч
давл.,
гПа
погр.,
м
22 января, сб
сб2223:00−21ссв1196100 0.0 10299
02:00−20с1194100 0.0 103012
05:00−22с229494 0.0 10309
08:00−23с229599 0.0 103110
11:00−18ссв1287100 0.0 103257
14:00−13св1282100 0.0 1031119
17:00−15с2292100 0.0 103110
20:00−19ссв2297100 0.0 103312
23 января, вс
вс2323:00−21ссв2298100 0.0 103417
02:00−21с229781 0.0 103520
05:00−23ссв22975 0.0 103624
08:00−24с22988 0.0 103720
11:00−18ссв249620 0.0 103698
14:00−13ссв349143 0.0 1036183
17:00−14ссв36935 0.0 103896
20:00−19ссв32987 0.0 103924
24 января, пн
пн2423:00−20ссв339911 0.0 104028
02:00−21ссв22985 0.0 104018
05:00−22ссв32955 0.0 104132
08:00−23ссв22945 0.0 104228
11:00−18ссв348833 0.0 104299
14:00−13св34816 0.0 1041160
17:00−16ссв22905 0.0 104120
20:00−21ссв22945 0.0 104226
25 января, вт
вт2523:00−24св229641 0.0 10429
02:00−25ссв22977 0.0 10419
05:00−25с1196100 0.0 10409
08:00−25с009661 0.0 10409
11:00−19ю1187100 0.0 103939
14:00−13ю1276100 0.0 103680
17:00−14ююв1186100 0.0 10359
20:00−20юв1193100 0.0 10369
26 января, ср
ср2623:00−22ююв0096100 0.0 10369
02:00−23ссв1197100 0.0 10369
05:00−25св1198100 0.0 10369
08:00−26св1199100 0.0 10369
11:00−20всв119193 0.0 103534
14:00−14вюв117562 0.0 103468
17:00−17юв118558 0.0 10349
20:00−21вюв1191100 0.0 10359